• Join FlightAware (Why Join?)
  • Login
  • US Flag 
01:05AM EST


 

Airport Tracker/Info


-or-


 

Live Flight TrackerFlight Track Log ✈ N650LR ✈ 01-Aug-2013 ✈ KIND - KJVL

Flight Track Log - Related Links

Times and Time Zones

All times are in EDT time to prevent confusion due to time zone crossing. See the N650LR flight status page for this flight to view local times or setup timezone preferences in your user account.

Time Position Orientation Groundspeed Altitude Reporting Facility
EDT Latitude Longitude Course Direction KTS MPH feet Rate Location/Type
07:09PM 39.6633 -86.3981 319° Northwest 320 368 7,000  Level Chicago Center
07:10PM 39.6831 -86.4206 319° Northwest 261 300 8,700 3,420 Climbing Indianapolis Center
07:11PM 39.7592 -86.4333 353° North 272 313 12,400 1,980 Climbing Indianapolis Center
07:12PM 39.8344 -86.4514 350° North 273 314 12,900 840 Climbing Indianapolis Center
07:13PM 39.9214 -86.4661 353° North 264 304 14,200 2,040 Climbing Indianapolis Center
07:14PM 40.0039 -86.4831 351° North 289 333 17,200 2,880 Climbing Indianapolis Center
07:15PM 40.0739 -86.5417 327° Northwest 300 345 20,200 2,760 Climbing Indianapolis Center
07:16PM 40.1403 -86.6067 323° Northwest 300 345 23,000 2,460 Climbing Indianapolis Center
07:16PM 40.1817 -86.6444 325° Northwest 302 348 24,000 600 Climbing Chicago Center
07:18PM 40.2519 -86.7103 324° Northwest 312 359 24,000  Level Chicago Center
07:19PM 40.3169 -86.7717 324° Northwest 294 338 24,000  Level Chicago Center
07:20PM 40.3789 -86.8303 324° Northwest 280 322 24,000  Level Chicago Center
07:21PM 40.4422 -86.8889 325° Northwest 280 322 24,000  Level Chicago Center
07:22PM 40.5044 -86.9494 324° Northwest 280 322 24,000  Level Chicago Center
07:23PM 40.5794 -87.0197 325° Northwest 278 320 24,000  Level Chicago Center
07:24PM 40.6411 -87.0786 324° Northwest 276 318 24,000  Level Chicago Center
07:25PM 40.7044 -87.1381 325° Northwest 276 318 24,000  Level Chicago Center
07:26PM 40.7656 -87.1983 323° Northwest 275 316 24,000  Level Chicago Center
07:27PM 40.8269 -87.2558 325° Northwest 273 314 24,000  Level Chicago Center
07:28PM 40.8997 -87.3283 323° Northwest 274 315 24,000  Level Chicago Center
07:29PM 40.9622 -87.3875 324° Northwest 277 319 24,000  Level Chicago Center
07:30PM 41.0233 -87.4464 324° Northwest 275 316 24,000  Level Chicago Center
07:31PM 41.0856 -87.5072 324° Northwest 279 321 24,000  Level Chicago Center
07:32PM 41.1483 -87.5681 324° Northwest 280 322 24,000  Level Chicago Center
07:33PM 41.2225 -87.6403 324° Northwest 278 320 24,000  Level Chicago Center
07:34PM 41.2850 -87.7003 324° Northwest 279 321 24,000  Level Chicago Center
07:35PM 41.3469 -87.7606 324° Northwest 279 321 24,000 -300 Level Chicago Center
07:36PM 41.4089 -87.8217 324° Northwest 281 323 23,500 -960 Descending Chicago Center
07:37PM 41.4881 -87.8994 324° Northwest 296 341 22,100 -1,260 Descending Chicago Center
07:38PM 41.5558 -87.9658 324° Northwest 308 354 21,000 -1,020 Descending Chicago Center
07:39PM 41.6233 -88.0333 323° Northwest 309 356 20,000 -480 Descending Chicago Center
07:40PM 41.6878 -88.0975 323° Northwest 298 343 20,000  Level Chicago Center
07:41PM 41.7597 -88.1692 323° Northwest 276 318 20,000 -60 Level Chicago Center
07:42PM 41.8181 -88.2275 323° Northwest 267 307 19,900 -600 Descending Chicago Center
07:43PM 41.8806 -88.2900 323° Northwest 276 318 18,800 -1,140 Descending Chicago Center
07:44PM 41.9475 -88.3564 324° Northwest 297 342 17,600 -1,320 Descending Chicago Center
07:45PM 42.0122 -88.4214 323° Northwest 295 339 16,100 -1,920 Descending Chicago Center
07:46PM 42.0906 -88.4994 324° Northwest 293 337 13,700 -2,280 Descending Chicago Center
07:48PM 42.1536 -88.5631 323° Northwest 289 333 11,500 -1,740 Descending Chicago Center
07:49PM 42.2111 -88.6219 323° Northwest 267 307 10,200 -1,020 Descending Chicago Center
07:50PM 42.2608 -88.6744 322° Northwest 234 269 9,500 -960 Descending Chicago Center
07:51PM 42.3150 -88.7261 325° Northwest 238 274 8,300 -1,200 Descending Chicago Center
07:52PM 42.3728 -88.7886 321° Northwest 248 285 7,100 -1,260 Descending Chicago Center
07:53PM 42.4383 -88.8544 323° Northwest 252 290 5,800 -1,140 Descending Chicago Center
07:54PM 42.4978 -88.9053 328° Northwest 252 290 4,800 -1,260 Descending Chicago Center
07:55PM 42.5556 -88.9542 328° Northwest 248 285 3,200 -1,500 Descending Chicago Center
07:56PM 42.5922 -89.0064 314° West 213 245 1,700 -900 Descending Chicago Center
07:57PM 42.6228 -89.0533 312° West 194 223 1,400 -300 Descending Chicago Center
07:59PM 42.6167 -89.0333 90° East  Level FlightAware Approximate